Starlink 11433

operational
NORAD ID: 62008 Int'l Des: 2024-213 Owner: SPXS Country: US Constellation: starlink
LEOCIRCULAR

About Starlink 11433

Description loading...

Live Position

Loading 3D Globe...

Upcoming Passes

Altitude History

Altitude vs Time

uPlot chart will show altitude changes over time

Two-Line Element Set

1 62008U 24213A 25354.52414358 .00166551 00000-0 13527-2 0 9993
2 62008 53.1581 71.3503 0001078 70.4410 289.6724 15.69700617 62482
Epoch: Dec 20, 2025 • Age: 9 hours

Current Status

Altitude 378.6 km
Velocity 7.68 km/s
Sub-Earth Point -53.26°S, 67.13°W
Launch Date Nov 18, 2024
Age 1 years
Type internet

Technical Details

Classification Payload
Mass 960.00 kg
Dry Mass 910.00 kg
Total Mass 960.00 kg
Length 0.30 m
Diameter 4.10 m
Span 29.00 m
Shape Box + pan
Manufacturer SPXS
Bus Type Starlink V2MD
Phase Status In Orbit
Owner/State SPXS/US

Large Constellations

Loading constellations...